6°C
Woerden, The Nederlands
Taal:  Nederlands
Updated27/03/2019 02:15 
 
Station Historical Data
 
Daily Summary for March 27, 2019 Units:  Metric    English   Both
Next Day »
Daily Weekly Monthly Yearly Custom
  Current: High: Low: Average:
Temperature: 6.4 °C 6.9 °C 6.3 °C 6.7 °C
Dew Point: 4.1 °C 4.6 °C 4.0 °C 4.3 °C
Humidity: 85% 85% 85% 85%
Wind Speed: 3.7km/h 6.4km/h 0.0km/h 4.4km/h
Wind Gust: 2.9km/h 4.7km/h - -
WindWest - - West
Pressure: 1031.4 hPa 1031.5 hPa 1031.2 hPa -
Precipitation: 0.0 mm      
Historical Graphs
 
 
Tabular Data for March 27, 2019
Time Temperature Dew Point Pressure Wind Wind Speed Wind Gust Humidity Rainfall Rate (Hourly) solar Conditions
00:04 6.9 °C 4.6 °C 1031.5 hPa West 6.4 km/h 3.1 km/h 85% 0.0 mm 0.00 W/m2 CLR
00:09 6.9 °C 4.6 °C 1031.5 hPa West 5.6 km/h 3.2 km/h 85% 0.0 mm 0.00 W/m2 CLR
00:14 6.9 °C 4.6 °C 1031.5 hPa West 5.6 km/h 4.2 km/h 85% 0.0 mm 0.00 W/m2 CLR
00:19 6.9 °C 4.6 °C 1031.5 hPa West 5.6 km/h 2.7 km/h 85% 0.0 mm 0.00 W/m2 CLR
00:24 6.9 °C 4.6 °C 1031.4 hPa West 5.6 km/h 1.8 km/h 85% 0.0 mm 0.00 W/m2 CLR
00:29 6.9 °C 4.6 °C 1031.4 hPa West 5.6 km/h 4.7 km/h 85% 0.0 mm 0.00 W/m2 CLR
00:34 6.8 °C 4.5 °C 1031.4 hPa West 5.6 km/h 3.1 km/h 85% 0.0 mm 0.00 W/m2 CLR
00:39 6.9 °C 4.6 °C 1031.4 hPa West 5.6 km/h 3.7 km/h 85% 0.0 mm 0.00 W/m2 CLR
00:44 6.8 °C 4.5 °C 1031.4 hPa West 5.6 km/h 1.8 km/h 85% 0.0 mm 0.00 W/m2 CLR
00:49 6.8 °C 4.5 °C 1031.4 hPa West 3.7 km/h 1.6 km/h 85% 0.0 mm 0.00 W/m2 CLR
00:54 6.8 °C 4.5 °C 1031.3 hPa West 5.6 km/h 2.9 km/h 85% 0.0 mm 0.00 W/m2 CLR
00:59 6.8 °C 4.4 °C 1031.3 hPa West 5.6 km/h 3.7 km/h 85% 0.0 mm 0.00 W/m2 CLR
01:04 6.7 °C 4.4 °C 1031.3 hPa West 3.7 km/h 1.9 km/h 85% 0.0 mm 0.00 W/m2 CLR
01:09 6.7 °C 4.4 °C 1031.3 hPa West 3.7 km/h 2.3 km/h 85% 0.0 mm 0.00 W/m2 CLR
01:14 6.7 °C 4.4 °C 1031.3 hPa West 3.7 km/h 1.8 km/h 85% 0.0 mm 0.00 W/m2 CLR
01:19 6.7 °C 4.3 °C 1031.3 hPa Calm     85% 0.0 mm 0.00 W/m2 CLR
01:24 6.7 °C 4.3 °C 1031.2 hPa West 3.2 km/h   85% 0.0 mm 0.00 W/m2 CLR
01:29 6.6 °C 4.2 °C 1031.3 hPa West 4.8 km/h 2.9 km/h 85% 0.0 mm 0.00 W/m2 CLR
01:34 6.5 °C 4.2 °C 1031.3 hPa West 3.7 km/h 1.6 km/h 85% 0.0 mm 0.00 W/m2 CLR
01:39 6.4 °C 4.1 °C 1031.2 hPa West 3.7 km/h 1.4 km/h 85% 0.0 mm 0.00 W/m2 CLR
01:44 6.3 °C 4.0 °C 1031.2 hPa West 3.7 km/h 0.6 km/h 85% 0.0 mm 0.00 W/m2 CLR
01:49 6.3 °C 4.0 °C 1031.3 hPa West 3.7 km/h 1.9 km/h 85% 0.0 mm 0.00 W/m2 CLR
01:54 6.3 °C 4.0 °C 1031.3 hPa West 3.7 km/h 2.6 km/h 85% 0.0 mm 0.00 W/m2 CLR
01:59 6.3 °C 4.0 °C 1031.3 hPa West 3.7 km/h 2.7 km/h 85% 0.0 mm 0.00 W/m2 CLR
02:04 6.3 °C 4.0 °C 1031.3 hPa West 3.7 km/h 1.6 km/h 85% 0.0 mm 0.00 W/m2 CLR
02:09 6.4 °C 4.1 °C 1031.3 hPa West 3.7 km/h 1.9 km/h 85% 0.0 mm 0.00 W/m2 CLR
02:14 6.4 °C 4.1 °C 1031.4 hPa West 3.7 km/h 2.9 km/h 85% 0.0 mm 0.00 W/m2 CLR
Juneau County Weather